| time (UTC) | temp C | wind direction | speed KPH | gust KPH | rain 1hr cm | rain 24hr cm | rain mn cm | humidity % | barometer mb |
| 20260506172552 | 20 | 0 | 1.6 | 8.0 | 0.00 | 1.24 | 1.24 | 91 | 1014.6 |
| 20260506172052 | 20 | 360 | 1.6 | 8.0 | 0.00 | 1.24 | 1.24 | 91 | 1014.5 |
| 20260506171606 | 20 | 360 | 3.2 | 8.0 | 0.00 | 1.24 | 1.24 | 91 | 1014.5 |
| 20260506171054 | 20 | 360 | 1.6 | 6.4 | 0.00 | 1.24 | 1.24 | 91 | 1014.4 |
| 20260506170551 | 20 | 360 | 1.6 | 6.4 | 0.00 | 1.24 | 1.24 | 92 | 1014.3 |
| 20260506170058 | 20 | 360 | 1.6 | 9.7 | 0.00 | 1.24 | 1.24 | 92 | 1014.3 |
| 20260506165549 | 20 | 360 | 4.8 | 12.9 | 0.00 | 1.24 | 1.24 | 92 | 1014.3 |
| 20260506165053 | 20 | 360 | 4.8 | 12.9 | 0.00 | 1.24 | 1.24 | 92 | 1014.4 |
| 20260506164553 | 20 | 360 | 3.2 | 8.0 | 0.00 | 1.24 | 1.24 | 93 | 1014.2 |
| 20260506164053 | 20 | 360 | 3.2 | 8.0 | 0.00 | 1.24 | 1.24 | 93 | 1014.1 |
| 20260506163552 | 20 | 360 | 3.2 | 8.0 | 0.00 | 1.24 | 1.24 | 93 | 1014.1 |
| 20260506163052 | 20 | 360 | 3.2 | 8.0 | 0.00 | 1.24 | 1.24 | 94 | 1013.8 |
| 20260506162551 | 20 | 360 | 3.2 | 8.0 | 0.00 | 1.24 | 1.24 | 94 | 1014.0 |
| 20260506162055 | 20 | 360 | 3.2 | 6.4 | 0.00 | 1.24 | 1.24 | 94 | 1014.0 |
| 20260506161553 | 20 | 360 | 1.6 | 6.4 | 0.00 | 1.24 | 1.24 | 94 | 1014.1 |
| 20260506161052 | 20 | 360 | 1.6 | 8.0 | 0.00 | 1.24 | 1.24 | 94 | 1014.2 |
| 20260506160552 | 19 | 0 | 1.6 | 8.0 | 0.00 | 1.24 | 1.24 | 94 | 1014.1 |
| 20260506160108 | 19 | 360 | 1.6 | 8.0 | 0.00 | 1.24 | 1.24 | 94 | 1014.1 |
| 20260506155551 | 19 | 0 | 3.2 | 8.0 | 0.00 | 1.24 | 1.24 | 94 | 1014.2 |
| 20260506155052 | 19 | 360 | 3.2 | 6.4 | 0.03 | 1.24 | 1.24 | 94 | 1014.4 |
| 20260506154553 | 19 | 360 | 1.6 | 6.4 | 0.05 | 1.24 | 1.24 | 94 | 1014.5 |
| 20260506154055 | 19 | 360 | 0.0 | 4.8 | 0.05 | 1.24 | 1.24 | 95 | 1014.6 |
| 20260506153553 | 18 | 0 | 0.0 | 6.4 | 0.30 | 1.24 | 1.24 | 94 | 1014.6 |
| 20260506153053 | 18 | 0 | 0.0 | 6.4 | 0.51 | 1.24 | 1.24 | 95 | 1014.6 |
| 20260506152551 | 18 | 0 | 0.0 | 3.2 | 0.71 | 1.24 | 1.24 | 94 | 1014.5 |
| 20260506152049 | 18 | 0 | 0.0 | 3.2 | 0.89 | 1.24 | 1.24 | 94 | 1014.3 |
| 20260506151557 | 18 | 0 | 0.0 | 3.2 | 0.94 | 1.24 | 1.24 | 94 | 1014.6 |
| 20260506151051 | 18 | 0 | 0.0 | 3.2 | 0.99 | 1.24 | 1.24 | 94 | 1014.7 |
| 20260506150552 | 18 | 0 | 0.0 | 4.8 | 0.99 | 1.24 | 1.24 | 93 | 1014.8 |
| 20260506150055 | 18 | 0 | 0.0 | 6.4 | 1.02 | 1.24 | 1.24 | 93 | 1014.7 |
| 20260506145552 | 17 | 0 | 1.6 | 6.4 | 1.07 | 1.24 | 1.24 | 93 | 1014.1 |
| 20260506145052 | 17 | 0 | 0.0 | 3.2 | 1.07 | 1.22 | 1.22 | 93 | 1014.6 |
| 20260506144601 | 17 | 0 | 0.0 | 3.2 | 1.04 | 1.19 | 1.19 | 92 | 1015.4 |
| 20260506144052 | 17 | 0 | 0.0 | 4.8 | 1.02 | 1.17 | 1.17 | 92 | 1015.6 |
| 20260506143552 | 17 | 0 | 1.6 | 6.4 | 0.81 | 0.94 | 0.94 | 92 | 1016.2 |
| 20260506143054 | 18 | 0 | 0.0 | 9.7 | 0.58 | 0.71 | 0.71 | 92 | 1016.4 |
| 20260506142551 | 18 | 360 | 1.6 | 9.7 | 0.43 | 0.53 | 0.53 | 92 | 1016.3 |
| 20260506142051 | 18 | 360 | 4.8 | 9.7 | 0.30 | 0.36 | 0.36 | 92 | 1016.4 |
| 20260506141554 | 18 | 0 | 0.0 | 3.2 | 0.28 | 0.30 | 0.30 | 91 | 1015.8 |
| 20260506141052 | 17 | 0 | 0.0 | 1.6 | 0.23 | 0.25 | 0.25 | 91 | 1015.6 |
| 20260506140552 | 18 | 0 | 0.0 | 1.6 | 0.23 | 0.25 | 0.25 | 91 | 1015.5 |
| 20260506140053 | 18 | 0 | 0.0 | 1.6 | 0.23 | 0.23 | 0.23 | 91 | 1015.2 |
| 20260506135552 | 18 | 0 | 0.0 | 3.2 | 0.18 | 0.18 | 0.18 | 91 | 1015.2 |
| 20260506135053 | 18 | 0 | 0.0 | 3.2 | 0.15 | 0.15 | 0.15 | 91 | 1015.1 |
| 20260506134553 | 18 | 0 | 0.0 | 3.2 | 0.15 | 0.15 | 0.15 | 90 | 1014.9 |
| 20260506134050 | 18 | 360 | 0.0 | 4.8 | 0.15 | 0.15 | 0.15 | 90 | 1015.0 |
| 20260506133551 | 18 | 0 | 0.0 | 4.8 | 0.13 | 0.13 | 0.13 | 89 | 1014.8 |
| 20260506133053 | 18 | 360 | 0.0 | 4.8 | 0.13 | 0.13 | 0.13 | 89 | 1014.8 |
| 20260506132554 | 18 | 0 | 0.0 | 4.8 | 0.10 | 0.10 | 0.10 | 88 | 1014.8 |
| 20260506132055 | 18 | 0 | 1.6 | 4.8 | 0.05 | 0.05 | 0.05 | 87 | 1014.7 |
| 20260506131612 | 18 | 0 | 1.6 | 4.8 | 0.03 | 0.03 | 0.03 | 86 | 1014.6 |
| 20260506131049 | 18 | 360 | 0.0 | 4.8 | 0.03 | 0.03 | 0.03 | 85 | 1014.4 |
| 20260506130549 | 19 | 0 | 0.0 | 6.4 | 0.03 | 0.03 | 0.03 | 85 | 1014.2 |
| 20260506130057 | 19 | 360 | 3.2 | 6.4 | 0.00 | 0.00 | 0.00 | 84 | 1014.2 |
| 20260506125551 | 19 | 360 | 1.6 | 6.4 | 0.00 | 0.00 | 0.00 | 83 | 1014.3 |
| 20260506125049 | 19 | 360 | 3.2 | 6.4 | 0.00 | 0.00 | 0.00 | 82 | 1014.0 |
| 20260506124553 | 19 | 360 | 1.6 | 4.8 | 0.00 | 0.00 | 0.00 | 82 | 1014.0 |
| 20260506124052 | 19 | 360 | 0.0 | 6.4 | 0.00 | 0.00 | 0.00 | 82 | 1013.8 |
| 20260506123551 | 19 | 360 | 1.6 | 6.4 | 0.00 | 0.00 | 0.00 | 82 | 1013.8 |
| 20260506123055 | 19 | 360 | 0.0 | 4.8 | 0.00 | 0.00 | 0.00 | 82 | 1013.7 |
| 20260506122552 | 19 | 0 | 0.0 | 3.2 | 0.00 | 0.00 | 0.00 | 82 | 1013.7 |
| 20260506122051 | 19 | 360 | 0.0 | 3.2 | 0.00 | 0.00 | 0.00 | 82 | 1013.6 |
| 20260506121557 | 19 | 360 | 0.0 | 4.8 | 0.00 | 0.00 | 0.00 | 82 | 1013.4 |
| 20260506121052 | 19 | 360 | 0.0 | 4.8 | 0.00 | 0.00 | 0.00 | 82 | 1013.6 |
| 20260506120552 | 19 | 0 | 0.0 | 3.2 | 0.00 | 0.00 | 0.00 | 82 | 1013.3 |
| 20260506120055 | 19 | 0 | 0.0 | 3.2 | 0.00 | 0.00 | 0.00 | 82 | 1013.3 |
| 20260506115550 | 19 | 0 | 0.0 | 4.8 | 0.00 | 0.00 | 0.00 | 82 | 1013.3 |
| 20260506115052 | 19 | 0 | 0.0 | 4.8 | 0.00 | 0.00 | 0.00 | 82 | 1013.3 |
| 20260506114555 | 19 | 0 | 0.0 | 3.2 | 0.00 | 0.00 | 0.00 | 82 | 1013.3 |
| 20260506114050 | 19 | 0 | 0.0 | 4.8 | 0.00 | 0.00 | 0.00 | 81 | 1013.3 |
| 20260506113551 | 19 | 0 | 0.0 | 6.4 | 0.00 | 0.00 | 0.00 | 81 | 1013.1 |
| 20260506113051 | 19 | 360 | 0.0 | 6.4 | 0.00 | 0.00 | 0.00 | 81 | 1013.1 |
| 20260506112554 | 19 | 360 | 1.6 | 6.4 | 0.00 | 0.00 | 0.00 | 81 | 1013.4 |
| 20260506112054 | 19 | 360 | 0.0 | 4.8 | 0.00 | 0.00 | 0.00 | 80 | 1012.6 |
| 20260506111552 | 19 | 0 | 1.6 | 4.8 | 0.00 | 0.00 | 0.00 | 80 | 1012.9 |
| 20260506111051 | 19 | 360 | 0.0 | 4.8 | 0.00 | 0.00 | 0.00 | 80 | 1013.1 |
| 20260506110553 | 19 | 360 | 0.0 | 4.8 | 0.00 | 0.00 | 0.00 | 80 | 1013.0 |
| 20260506110054 | 19 | 0 | 1.6 | 4.8 | 0.00 | 0.00 | 0.00 | 80 | 1012.8 |
| 20260506105552 | 19 | 0 | 0.0 | 6.4 | 0.00 | 0.00 | 0.00 | 80 | 1012.5 |
| 20260506105053 | 19 | 0 | 1.6 | 6.4 | 0.00 | 0.00 | 0.00 | 80 | 1012.6 |
| 20260506104601 | 19 | 360 | 0.0 | 4.8 | 0.00 | 0.00 | 0.00 | 80 | 1012.7 |
| 20260506104052 | 19 | 360 | 0.0 | 4.8 | 0.00 | 0.00 | 0.00 | 80 | 1012.7 |
| 20260506103551 | 19 | 0 | 0.0 | 4.8 | 0.00 | 0.00 | 0.00 | 80 | 1012.5 |
| 20260506103059 | 19 | 0 | 0.0 | 4.8 | 0.00 | 0.00 | 0.00 | 79 | 1012.3 |
| 20260506102555 | 19 | 360 | 0.0 | 4.8 | 0.00 | 0.00 | 0.00 | 79 | 1011.9 |
| 20260506102052 | 19 | 360 | 1.6 | 4.8 | 0.00 | 0.00 | 0.00 | 79 | 1012.0 |
| 20260506101600 | 19 | 360 | 0.0 | 4.8 | 0.00 | 0.00 | 0.00 | 78 | 1011.9 |
| 20260506101048 | 20 | 360 | 0.0 | 4.8 | 0.00 | 0.00 | 0.00 | 78 | 1012.3 |
| 20260506100552 | 20 | 0 | 1.6 | 4.8 | 0.00 | 0.00 | 0.00 | 77 | 1012.1 |
| 20260506100114 | 20 | 360 | 1.6 | 4.8 | 0.00 | 0.00 | 0.00 | 76 | 1012.3 |
| 20260506095553 | 20 | 360 | 1.6 | 4.8 | 0.00 | 0.00 | 0.00 | 76 | 1012.3 |
| 20260506095052 | 20 | 360 | 1.6 | 4.8 | 0.00 | 0.00 | 0.00 | 76 | 1012.4 |
| 20260506094557 | 20 | 360 | 0.0 | 6.4 | 0.00 | 0.00 | 0.00 | 76 | 1012.3 |
| 20260506094049 | 20 | 0 | 1.6 | 6.4 | 0.00 | 0.00 | 0.00 | 76 | 1012.2 |
| 20260506093553 | 20 | 0 | 1.6 | 8.0 | 0.00 | 0.00 | 0.00 | 75 | 1012.3 |
| 20260506093103 | 20 | 360 | 1.6 | 8.0 | 0.00 | 0.00 | 0.00 | 75 | 1012.4 |
| 20260506092553 | 20 | 360 | 0.0 | 3.2 | 0.00 | 0.00 | 0.00 | 75 | 1012.3 |
| 20260506092052 | 20 | 360 | 0.0 | 4.8 | 0.00 | 0.00 | 0.00 | 75 | 1012.3 |
| 20260506091601 | 20 | 0 | 0.0 | 6.4 | 0.00 | 0.00 | 0.00 | 75 | 1012.1 |
| 20260506091052 | 20 | 360 | 1.6 | 6.4 | 0.00 | 0.00 | 0.00 | 74 | 1012.1 |
| 20260506090554 | 20 | 0 | 1.6 | 8.0 | 0.00 | 0.00 | 0.00 | 74 | 1012.1 |
| 20260506090054 | 20 | 360 | 1.6 | 8.0 | 0.00 | 0.00 | 0.00 | 74 | 1012.1 |
| 20260506085551 | 20 | 360 | 1.6 | 6.4 | 0.00 | 0.00 | 0.00 | 74 | 1012.0 |
| 20260506085051 | 20 | 360 | 3.2 | 6.4 | 0.00 | 0.00 | 0.00 | 74 | 1012.0 |
| 20260506084604 | 20 | 360 | 1.6 | 6.4 | 0.00 | 0.00 | 0.00 | 74 | 1011.9 |
| 20260506084051 | 20 | 360 | 1.6 | 6.4 | 0.00 | 0.00 | 0.00 | 73 | 1011.9 |
| 20260506083552 | 20 | 360 | 1.6 | 4.8 | 0.00 | 0.00 | 0.00 | 73 | 1011.7 |
| 20260506083057 | 20 | 360 | 1.6 | 4.8 | 0.00 | 0.00 | 0.00 | 73 | 1011.7 |
| 20260506082552 | 20 | 0 | 1.6 | 6.4 | 0.00 | 0.00 | 0.00 | 73 | 1011.7 |
| 20260506082052 | 20 | 360 | 1.6 | 6.4 | 0.00 | 0.00 | 0.00 | 73 | 1011.8 |
| 20260506081554 | 20 | 360 | 1.6 | 6.4 | 0.00 | 0.00 | 0.00 | 73 | 1011.7 |
| 20260506081053 | 20 | 360 | 1.6 | 6.4 | 0.00 | 0.00 | 0.00 | 72 | 1012.0 |
| 20260506080549 | 20 | 0 | 1.6 | 6.4 | 0.00 | 0.00 | 0.00 | 73 | 1011.7 |
| 20260506073054 | 20 | 0 | 0.0 | 4.8 | 0.00 | 0.00 | 0.00 | 71 | 1011.6 |
| 20260506072551 | 20 | 360 | 1.6 | 4.8 | 0.00 | 0.00 | 0.00 | 70 | 1011.8 |
| 20260506072047 | 20 | 360 | 0.0 | 4.8 | 0.00 | 0.00 | 0.00 | 70 | 1011.7 |
| 20260506071558 | 20 | 360 | 0.0 | 4.8 | 0.00 | 0.00 | 0.00 | 70 | 1011.6 |
| 20260506071048 | 20 | 0 | 0.0 | 4.8 | 0.00 | 0.00 | 0.00 | 70 | 1011.6 |
| 20260506070556 | 20 | 360 | 0.0 | 4.8 | 0.00 | 0.00 | 0.00 | 69 | 1011.6 |
| 20260506062050 | 20 | 0 | 0.0 | 4.8 | 0.00 | 0.00 | 0.00 | 66 | 1012.2 |
| 20260506061553 | 20 | 360 | 0.0 | 4.8 | 0.00 | 0.00 | 0.00 | 66 | 1012.4 |
| 20260506061051 | 20 | 360 | 0.0 | 3.2 | 0.00 | 0.00 | 0.00 | 66 | 1012.4 |
| 20260506060553 | 20 | 360 | 0.0 | 3.2 | 0.00 | 0.00 | 0.00 | 66 | 1012.5 |
| 20260506051052 | 20 | 0 | 0.0 | 1.6 | 0.00 | 0.00 | 0.00 | 64 | 1012.8 |
| 20260506050552 | 20 | 0 | 0.0 | 3.2 | 0.00 | 0.00 | 0.00 | 64 | 1012.7 |
| 20260506045051 | 20 | 0 | 0.0 | 3.2 | 0.00 | 0.00 | 0.00 | 64 | 1013.0 |
| 20260506044556 | 20 | 360 | 0.0 | 3.2 | 0.00 | 0.00 | 0.00 | 63 | 1012.9 |
| 20260506044051 | 20 | 360 | 0.0 | 3.2 | 0.00 | 0.00 | 0.00 | 63 | 1012.8 |
| 20260506043551 | 20 | 0 | 0.0 | 3.2 | 0.00 | 0.00 | 0.00 | 63 | 1012.7 |
| 20260506043052 | 20 | 0 | 0.0 | 3.2 | 0.00 | 0.00 | 0.00 | 63 | 1012.8 |
| 20260506042551 | 20 | 360 | 0.0 | 3.2 | 0.00 | 0.00 | 0.00 | 63 | 1012.9 |
| 20260506042054 | 20 | 0 | 0.0 | 3.2 | 0.00 | 0.00 | 0.00 | 63 | 1012.8 |
| 20260506041602 | 20 | 0 | 0.0 | 3.2 | 0.00 | 0.00 | 0.00 | 63 | 1012.9 |
| 20260506041052 | 20 | 360 | 0.0 | 3.2 | 0.00 | 0.00 | 0.00 | 62 | 1012.9 |
| 20260506040551 | 20 | 0 | 0.0 | 3.2 | 0.00 | 0.00 | 0.00 | 62 | 1012.8 |
| 20260506040108 | 20 | 360 | 0.0 | 3.2 | 0.00 | 0.00 | 0.00 | 62 | 1012.8 |
| 20260506035551 | 21 | 360 | 0.0 | 3.2 | 0.00 | 0.00 | 0.00 | 61 | 1012.8 |
| 20260506035052 | 21 | 0 | 0.0 | 1.6 | 0.00 | 0.00 | 0.00 | 61 | 1013.0 |
| 20260506034553 | 21 | 0 | 0.0 | 1.6 | 0.00 | 0.00 | 0.00 | 61 | 1013.1 |
| 20260506034052 | 21 | 0 | 0.0 | 0.0 | 0.00 | 0.00 | 0.00 | 61 | 1013.0 |
| 20260506033551 | 21 | 0 | 0.0 | 0.0 | 0.00 | 0.00 | 0.00 | 61 | 1013.2 |
| 20260506033055 | 21 | 0 | 0.0 | 3.2 | 0.00 | 0.00 | 0.00 | 61 | 1013.3 |
| 20260506032551 | 21 | 0 | 0.0 | 3.2 | 0.00 | 0.00 | 0.00 | 61 | 1013.2 |
| 20260506032051 | 21 | 0 | 0.0 | 3.2 | 0.00 | 0.00 | 0.00 | 60 | 1013.2 |
| 20260506031553 | 21 | 0 | 0.0 | 3.2 | 0.00 | 0.00 | 0.00 | 60 | 1013.1 |
| 20260506031051 | 21 | 0 | 0.0 | 3.2 | 0.00 | 0.00 | 0.00 | 60 | 1012.9 |
| 20260506030551 | 21 | 360 | 0.0 | 1.6 | 0.00 | 0.00 | 0.00 | 60 | 1012.9 |
| 20260506030116 | 21 | 0 | 0.0 | 1.6 | 0.00 | 0.00 | 0.00 | 60 | 1012.9 |
| 20260506025551 | 21 | 0 | 0.0 | 3.2 | 0.00 | 0.00 | 0.00 | 59 | 1013.1 |
| 20260506025051 | 21 | 0 | 0.0 | 3.2 | 0.00 | 0.00 | 0.00 | 59 | 1013.3 |
| 20260506024558 | 21 | 0 | 0.0 | 4.8 | 0.00 | 0.00 | 0.00 | 59 | 1013.4 |
| 20260506024051 | 21 | 0 | 0.0 | 4.8 | 0.00 | 0.00 | 0.00 | 59 | 1013.4 |
| 20260506023550 | 21 | 360 | 1.6 | 4.8 | 0.00 | 0.00 | 0.00 | 59 | 1013.3 |
| 20260506023057 | 21 | 360 | 1.6 | 6.4 | 0.00 | 0.00 | 0.00 | 59 | 1013.2 |
| 20260506022551 | 21 | 360 | 1.6 | 6.4 | 0.00 | 0.00 | 0.00 | 59 | 1013.1 |
| 20260506022048 | 21 | 360 | 0.0 | 4.8 | 0.00 | 0.00 | 0.00 | 59 | 1012.8 |
| 20260506021609 | 21 | 360 | 1.6 | 8.0 | 0.00 | 0.00 | 0.00 | 58 | 1012.8 |
| 20260506021052 | 21 | 360 | 1.6 | 8.0 | 0.00 | 0.00 | 0.00 | 58 | 1013.0 |
| 20260506020551 | 21 | 0 | 1.6 | 8.0 | 0.00 | 0.00 | 0.00 | 58 | 1012.9 |
| 20260506020055 | 21 | 360 | 3.2 | 8.0 | 0.00 | 0.00 | 0.00 | 58 | 1012.6 |
| 20260506015549 | 21 | 360 | 3.2 | 8.0 | 0.00 | 0.00 | 0.00 | 58 | 1012.7 |
| 20260506015054 | 21 | 360 | 3.2 | 8.0 | 0.00 | 0.00 | 0.00 | 58 | 1012.7 |
| 20260506014612 | 21 | 360 | 1.6 | 8.0 | 0.00 | 0.00 | 0.00 | 57 | 1012.7 |
| 20260506014053 | 21 | 360 | 1.6 | 8.0 | 0.00 | 0.00 | 0.00 | 57 | 1012.5 |
| 20260506013553 | 21 | 360 | 3.2 | 8.0 | 0.00 | 0.00 | 0.00 | 57 | 1012.4 |
| 20260506013100 | 21 | 360 | 1.6 | 8.0 | 0.00 | 0.00 | 0.00 | 57 | 1012.5 |
| 20260506012553 | 21 | 360 | 1.6 | 4.8 | 0.00 | 0.00 | 0.00 | 57 | 1012.4 |
| 20260506012056 | 21 | 360 | 1.6 | 4.8 | 0.00 | 0.00 | 0.00 | 56 | 1012.3 |
| 20260506011600 | 21 | 360 | 0.0 | 3.2 | 0.00 | 0.00 | 0.00 | 56 | 1012.3 |
| 20260506011053 | 21 | 0 | 0.0 | 3.2 | 0.00 | 0.00 | 0.00 | 56 | 1012.4 |
| 20260506010553 | 21 | 0 | 0.0 | 3.2 | 0.00 | 0.00 | 0.00 | 56 | 1012.3 |
| 20260506010103 | 21 | 360 | 0.0 | 4.8 | 0.00 | 0.00 | 0.00 | 56 | 1012.3 |
| 20260506005553 | 21 | 0 | 0.0 | 4.8 | 0.00 | 0.00 | 0.00 | 56 | 1012.3 |
| 20260506005052 | 21 | 360 | 0.0 | 4.8 | 0.00 | 0.00 | 0.00 | 55 | 1012.4 |
| 20260506004555 | 21 | 360 | 0.0 | 3.2 | 0.00 | 0.00 | 0.00 | 55 | 1012.3 |
| 20260506004054 | 21 | 360 | 0.0 | 3.2 | 0.00 | 0.00 | 0.00 | 55 | 1012.6 |
| 20260506003553 | 21 | 0 | 0.0 | 3.2 | 0.00 | 0.00 | 0.00 | 54 | 1012.5 |
| 20260506003052 | 21 | 0 | 0.0 | 3.2 | 0.00 | 0.00 | 0.00 | 54 | 1012.5 |
| 20260506002555 | 21 | 0 | 0.0 | 3.2 | 0.00 | 0.00 | 0.00 | 54 | 1012.6 |
| 20260506002053 | 21 | 360 | 0.0 | 4.8 | 0.00 | 0.00 | 0.00 | 54 | 1012.7 |
| 20260506001559 | 21 | 360 | 1.6 | 4.8 | 0.00 | 0.00 | 0.00 | 54 | 1012.7 |
| 20260506001053 | 21 | 360 | 0.0 | 4.8 | 0.00 | 0.00 | 0.00 | 54 | 1012.7 |
| 20260506000552 | 21 | 0 | 0.0 | 3.2 | 0.00 | 0.00 | 0.00 | 53 | 1012.7 |
| 20260506000059 | 21 | 360 | 0.0 | 3.2 | 0.00 | 0.00 | 0.00 | 54 | 1012.6 |
| 20260505235556 | 21 | 0 | 0.0 | 3.2 | 0.00 | 0.00 | 0.00 | 53 | 1012.6 |
| 20260505235053 | 21 | 360 | 0.0 | 3.2 | 0.00 | 0.00 | 0.00 | 53 | 1012.5 |
| 20260505234554 | 22 | 360 | 0.0 | 4.8 | 0.00 | 0.00 | 0.00 | 53 | 1012.6 |
| 20260505234054 | 22 | 0 | 1.6 | 4.8 | 0.00 | 0.00 | 0.00 | 52 | 1012.8 |
| 20260505233554 | 22 | 360 | 1.6 | 4.8 | 0.00 | 0.00 | 0.00 | 52 | 1012.7 |
| 20260505233104 | 22 | 360 | 1.6 | 4.8 | 0.00 | 0.00 | 0.00 | 52 | 1012.7 |
| 20260505232553 | 21 | 360 | 0.0 | 4.8 | 0.00 | 0.00 | 0.00 | 52 | 1012.7 |
| 20260505232053 | 21 | 360 | 1.6 | 4.8 | 0.00 | 0.00 | 0.00 | 52 | 1012.7 |
| 20260505231552 | 21 | 360 | 1.6 | 4.8 | 0.00 | 0.00 | 0.00 | 52 | 1012.8 |
| 20260505231055 | 21 | 360 | 1.6 | 4.8 | 0.00 | 0.00 | 0.00 | 52 | 1012.5 |
| 20260505230553 | 21 | 360 | 1.6 | 6.4 | 0.00 | 0.00 | 0.00 | 52 | 1012.6 |
| 20260505230056 | 21 | 360 | 1.6 | 6.4 | 0.00 | 0.00 | 0.00 | 54 | 1012.6 |
| 20260505225553 | 21 | 360 | 0.0 | 4.8 | 0.00 | 0.00 | 0.00 | 54 | 1012.5 |
| 20260505225054 | 21 | 360 | 1.6 | 4.8 | 0.00 | 0.00 | 0.00 | 54 | 1012.6 |
| 20260505224552 | 21 | 0 | 0.0 | 4.8 | 0.00 | 0.00 | 0.00 | 55 | 1012.7 |
| 20260505224056 | 21 | 360 | 0.0 | 4.8 | 0.00 | 0.00 | 0.00 | 55 | 1012.9 |
| 20260505223552 | 21 | 360 | 0.0 | 4.8 | 0.00 | 0.00 | 0.00 | 56 | 1012.8 |
| 20260505223054 | 20 | 360 | 0.0 | 3.2 | 0.00 | 0.00 | 0.00 | 57 | 1012.5 |
| 20260505222553 | 20 | 0 | 0.0 | 3.2 | 0.00 | 0.00 | 0.00 | 59 | 1012.5 |
| 20260505222053 | 20 | 0 | 0.0 | 3.2 | 0.00 | 0.00 | 0.00 | 59 | 1012.6 |
| 20260505221601 | 20 | 360 | 0.0 | 3.2 | 0.00 | 0.00 | 0.00 | 61 | 1012.7 |
| 20260505221056 | 20 | 0 | 0.0 | 3.2 | 0.00 | 0.00 | 0.00 | 60 | 1012.9 |
| 20260505220553 | 20 | 0 | 0.0 | 3.2 | 0.00 | 0.00 | 0.00 | 60 | 1012.8 |
| 20260505220057 | 21 | 360 | 0.0 | 3.2 | 0.00 | 0.00 | 0.00 | 59 | 1012.7 |
| 20260505215553 | 21 | 0 | 0.0 | 6.4 | 0.00 | 0.00 | 0.00 | 60 | 1012.5 |
| 20260505215053 | 21 | 0 | 0.0 | 6.4 | 0.00 | 0.00 | 0.00 | 61 | 1012.5 |
| 20260505214553 | 22 | 0 | 0.0 | 4.8 | 0.00 | 0.00 | 0.00 | 57 | 1012.4 |
| 20260505214053 | 22 | 0 | 0.0 | 6.4 | 0.00 | 0.00 | 0.00 | 56 | 1012.5 |
| 20260505213553 | 22 | 360 | 1.6 | 6.4 | 0.00 | 0.00 | 0.00 | 50 | 1013.1 |
| 20260505213102 | 22 | 360 | 1.6 | 4.8 | 0.00 | 0.00 | 0.00 | 49 | 1013.2 |
| 20260505212553 | 22 | 360 | 1.6 | 6.4 | 0.00 | 0.00 | 0.00 | 48 | 1013.1 |
| 20260505212053 | 23 | 360 | 1.6 | 9.7 | 0.00 | 0.00 | 0.00 | 47 | 1013.4 |
| 20260505211556 | 23 | 360 | 3.2 | 9.7 | 0.00 | 0.00 | 0.00 | 45 | 1013.5 |
| 20260505211053 | 23 | 360 | 1.6 | 9.7 | 0.00 | 0.00 | 0.00 | 48 | 1013.5 |
| 20260505210555 | 23 | 360 | 0.0 | 8.0 | 0.00 | 0.00 | 0.00 | 48 | 1013.5 |
| 20260505210106 | 23 | 0 | 1.6 | 8.0 | 0.00 | 0.00 | 0.00 | 48 | 1013.3 |
| 20260505205554 | 23 | 360 | 1.6 | 8.0 | 0.00 | 0.00 | 0.00 | 47 | 1013.2 |
| 20260505205057 | 23 | 360 | 3.2 | 8.0 | 0.00 | 0.00 | 0.00 | 46 | 1013.2 |
| 20260505204555 | 23 | 360 | 4.8 | 8.0 | 0.00 | 0.00 | 0.00 | 45 | 1013.3 |
| 20260505204053 | 24 | 360 | 3.2 | 8.0 | 0.00 | 0.00 | 0.00 | 45 | 1013.2 |
| 20260505203556 | 24 | 360 | 4.8 | 8.0 | 0.00 | 0.00 | 0.00 | 43 | 1013.2 |
| 20260505203056 | 24 | 360 | 3.2 | 8.0 | 0.00 | 0.00 | 0.00 | 44 | 1013.3 |
| 20260505202553 | 24 | 360 | 3.2 | 12.9 | 0.00 | 0.00 | 0.00 | 45 | 1013.2 |
| 20260505202053 | 25 | 360 | 4.8 | 12.9 | 0.00 | 0.00 | 0.00 | 47 | 1013.4 |
| 20260505201555 | 25 | 360 | 4.8 | 12.9 | 0.00 | 0.00 | 0.00 | 47 | 1013.5 |
| 20260505201053 | 25 | 360 | 4.8 | 12.9 | 0.00 | 0.00 | 0.00 | 47 | 1013.6 |
| 20260505200554 | 25 | 360 | 6.4 | 12.9 | 0.00 | 0.00 | 0.00 | 46 | 1013.7 |
| 20260505200055 | 26 | 360 | 6.4 | 12.9 | 0.00 | 0.00 | 0.00 | 48 | 1013.7 |
| 20260505195552 | 25 | 360 | 1.6 | 12.9 | 0.00 | 0.00 | 0.00 | 49 | 1013.6 |
| 20260505195052 | 25 | 360 | 3.2 | 14.5 | 0.00 | 0.00 | 0.00 | 48 | 1013.6 |
| 20260505194558 | 25 | 360 | 6.4 | 16.1 | 0.00 | 0.00 | 0.00 | 45 | 1013.6 |
| 20260505194054 | 25 | 360 | 8.0 | 16.1 | 0.00 | 0.00 | 0.00 | 46 | 1013.7 |
| 20260505193553 | 25 | 360 | 6.4 | 14.5 | 0.00 | 0.00 | 0.00 | 45 | 1013.8 |
| 20260505193110 | 25 | 360 | 1.6 | 12.9 | 0.00 | 0.00 | 0.00 | 46 | 1013.9 |
| 20260505192555 | 25 | 360 | 3.2 | 12.9 | 0.00 | 0.00 | 0.00 | 47 | 1013.9 |
| 20260505192053 | 25 | 360 | 6.4 | 12.9 | 0.00 | 0.00 | 0.00 | 45 | 1014.0 |
| 20260505191559 | 25 | 360 | 3.2 | 9.7 | 0.00 | 0.00 | 0.00 | 45 | 1014.2 |
| 20260505191053 | 25 | 0 | 1.6 | 8.0 | 0.00 | 0.00 | 0.00 | 46 | 1014.1 |
| 20260505190553 | 25 | 360 | 1.6 | 8.0 | 0.00 | 0.00 | 0.00 | 47 | 1013.9 |
| 20260505190056 | 25 | 360 | 3.2 | 14.5 | 0.00 | 0.00 | 0.00 | 45 | 1013.9 |
| 20260505185553 | 25 | 360 | 3.2 | 14.5 | 0.00 | 0.00 | 0.00 | 46 | 1014.2 |
| 20260505185053 | 25 | 360 | 6.4 | 14.5 | 0.00 | 0.00 | 0.00 | 45 | 1014.3 |
| 20260505184556 | 25 | 360 | 6.4 | 14.5 | 0.00 | 0.00 | 0.00 | 43 | 1014.2 |
| 20260505184053 | 24 | 360 | 4.8 | 17.7 | 0.00 | 0.00 | 0.00 | 43 | 1014.5 |
| 20260505183552 | 24 | 360 | 6.4 | 17.7 | 0.00 | 0.00 | 0.00 | 45 | 1014.5 |
| 20260505183057 | 24 | 360 | 6.4 | 16.1 | 0.00 | 0.00 | 0.00 | 46 | 1014.6 |
| 20260505182552 | 25 | 360 | 4.8 | 17.7 | 0.00 | 0.00 | 0.00 | 45 | 1014.8 |
| 20260505182052 | 24 | 360 | 6.4 | 17.7 | 0.00 | 0.00 | 0.00 | 44 | 1014.9 |
| 20260505181552 | 24 | 360 | 8.0 | 17.7 | 0.00 | 0.00 | 0.00 | 44 | 1015.1 |
| 20260505181054 | 24 | 360 | 4.8 | 12.9 | 0.00 | 0.00 | 0.00 | 43 | 1015.1 |
| 20260505180553 | 24 | 360 | 4.8 | 20.9 | 0.00 | 0.00 | 0.00 | 45 | 1015.2 |
| 20260505180056 | 24 | 360 | 3.2 | 20.9 | 0.00 | 0.00 | 0.00 | 44 | 1014.9 |
| 20260505175553 | 25 | 360 | 4.8 | 20.9 | 0.00 | 0.00 | 0.00 | 43 | 1014.8 |
| 20260505175053 | 24 | 360 | 4.8 | 16.1 | 0.00 | 0.00 | 0.00 | 46 | 1015.0 |
| 20260505174557 | 24 | 360 | 6.4 | 14.5 | 0.00 | 0.00 | 0.00 | 45 | 1015.0 |
| 20260505174056 | 24 | 360 | 3.2 | 14.5 | 0.00 | 0.00 | 0.00 | 46 | 1015.2 |
| 20260505173553 | 24 | 360 | 4.8 | 16.1 | 0.00 | 0.00 | 0.00 | 45 | 1015.2 |
| 20260505173051 | 24 | 360 | 6.4 | 16.1 | 0.00 | 0.00 | 0.00 | 45 | 1015.2 |